Total_Precipitation_Accumulation
0.04 0.07 0.08 0.11 0.12 0.15 0.20 0.24 0.28 0.33 0.34 0.39 0.46 0.65 0.79 0.97 1.04 1.14 1.26 1.39 1.37 1.46 1.65 1.98 2.49 3.20 3.67 3.85 3.93 4.08 4.07 4.13 4.14 4.10 4.12 4.31 4.46 4.46 4.43 4.56 4.59 4.42 4.35 4.49
0.08 0.09 0.08 0.09 0.13 0.15 0.22 0.26 0.31 0.37 0.32 0.36 0.52 0.70 0.87 1.02 1.07 1.12 1.23 1.27 1.27 1.28 1.51 1.97 2.45 2.93 3.26 3.60 3.79 3.99 3.99 4.18 4.44 4.80 5.30 5.58 5.68 5.55 5.35 5.23 5.14 5.02 4.93 5.01
0.10 0.08 0.05 0.06 0.11 0.16 0.23 0.25 0.32 0.41 0.43 0.41 0.58 0.92 1.01 1.08 1.18 1.32 1.37 1.46 1.51 1.37 1.53 1.87 2.12 2.52 2.82 3.20 3.54 3.80 4.12 4.54 5.04 5.68 6.45 6.76 6.51 6.09 5.87 5.51 5.43 5.21 5.00 4.97
0.04 0.04 0.04 0.06 0.08 0.13 0.19 0.16 0.23 0.30 0.41 0.48 0.49 0.99 1.27 1.35 1.49 1.63 1.50 1.49 1.54 1.52 1.53 1.71 1.96 2.25 2.45 2.82 3.29 3.75 4.31 4.93 5.57 6.15 6.60 6.80 6.68 6.41 6.11 5.66 5.25 4.85 4.54 4.34
0.05 0.05 0.09 0.14 0.09 0.12 0.12 0.12 0.16 0.21 0.28 0.44 0.48 0.81 1.36 1.57 1.67 1.76 1.61 1.57 1.51 1.49 1.42 1.57 1.77 2.02 2.33 2.76 3.23 3.72 4.22 4.94 5.44 5.97 6.35 6.55 6.57 6.47 6.07 5.39 4.73 4.31 3.97 3.71
0.05 0.06 0.11 0.11 0.08 0.09 0.11 0.12 0.16 0.23 0.31 0.53 0.49 0.76 1.45 1.83 1.92 1.83 1.75 1.71 1.56 1.54 1.59 1.60 1.68 1.85 2.28 2.70 3.18 3.52 3.88 4.59 5.27 5.77 6.13 6.40 6.37 6.14 5.53 4.82 4.26 3.90 3.60 3.33
0.14 0.11 0.11 0.09 0.10 0.10 0.12 0.22 0.44 0.58 0.67 0.67 0.50 0.81 1.48 1.65 1.65 1.66 1.56 1.50 1.55 1.53 1.51 1.52 1.73 1.86 2.34 2.73 3.04 3.29 3.53 3.94 4.45 4.90 5.22 5.40 5.44 5.24 4.82 4.39 3.92 3.56 3.30 3.03
0.27 0.22 0.12 0.08 0.07 0.08 0.12 0.22 0.55 0.79 0.84 0.78 0.77 1.36 1.83 1.60 1.53 1.54 1.51 1.37 1.38 1.46 1.45 1.46 1.69 1.92 2.08 2.31 2.56 2.85 3.07 3.34 3.60 3.84 4.04 4.02 4.01 3.99 3.80 3.47 3.06 2.77 2.49 2.31
0.28 0.24 0.12 0.07 0.05 0.06 0.11 0.18 0.23 0.42 0.51 0.76 1.14 1.53 1.88 1.79 1.75 1.54 1.41 1.36 1.38 1.37 1.39 1.48 1.67 1.81 1.89 2.02 2.22 2.39 2.48 2.67 2.76 2.72 2.69 2.74 2.74 2.76 2.68 2.56 2.33 2.03 1.78 1.64
0.22 0.21 0.14 0.10 0.08 0.08 0.12 0.17 0.25 0.54 0.78 1.01 1.25 1.82 2.29 2.24 2.04 1.77 1.51 1.36 1.23 1.26 1.33 1.43 1.57 1.74 1.83 1.86 2.03 2.13 2.07 2.10 2.16 2.19 2.10 2.00 2.06 2.10 2.09 2.03 1.89 1.72 1.53 1.38
0.22 0.25 0.19 0.14 0.17 0.17 0.17 0.21 0.29 0.51 0.64 1.09 1.52 2.17 2.20 2.28 2.15 2.00 1.88 1.53 1.34 1.35 1.39 1.51 1.51 1.52 1.53 1.57 1.62 1.70 1.72 1.74 1.75 1.75 1.76 1.74 1.69 1.66 1.67 1.73 1.69 1.55 1.42 1.29
0.23 0.27 0.34 0.26 0.21 0.18 0.19 0.24 0.32 0.62 0.73 0.83 1.31 2.16 1.87 2.19 2.29 2.16 2.00 1.66 1.53 1.51 1.54 1.58 1.52 1.41 1.42 1.52 1.55 1.53 1.52 1.50 1.53 1.57 1.62 1.67 1.53 1.45 1.46 1.49 1.48 1.36 1.31 1.24
0.22 0.34 0.55 0.65 0.57 0.37 0.30 0.26 0.29 0.38 0.60 0.78 1.25 2.07 1.98 2.14 2.32 2.10 1.86 1.71 1.67 1.69 1.72 1.75 1.65 1.50 1.46 1.47 1.47 1.34 1.28 1.26 1.18 1.21 1.34 1.45 1.34 1.25 1.25 1.25 1.22 1.21 1.17 1.13
0.19 0.42 0.77 1.15 1.01 0.57 0.43 0.31 0.28 0.37 0.66 0.83 1.10 1.60 1.83 1.97 2.00 1.89 1.82 1.74 1.73 1.71 1.67 1.74 1.72 1.55 1.51 1.41 1.35 1.18 1.13 1.12 1.08 1.05 1.07 1.16 1.20 1.17 1.14 1.13 1.10 1.04 0.99 0.96
0.23 0.45 0.54 0.47 0.38 0.38 0.40 0.36 0.34 0.43 0.54 0.85 1.14 1.44 1.71 1.96 2.04 2.01 1.85 1.74 1.68 1.66 1.70 1.81 1.73 1.51 1.50 1.48 1.41 1.20 1.08 1.08 1.06 1.07 1.06 1.06 1.08 1.02 1.02 1.06 1.05 0.92 0.87 0.80
0.25 0.36 0.44 0.43 0.36 0.38 0.45 0.45 0.44 0.50 0.61 0.82 1.11 1.53 1.82 2.09 2.09 1.96 1.80 1.71 1.77 1.75 1.74 1.71 1.60 1.52 1.52 1.50 1.44 1.26 1.11 1.05 1.05 1.11 1.12 1.09 1.09 1.02 0.99 1.02 1.03 0.94 0.91 0.86
0.29 0.43 0.66 0.63 0.45 0.60 0.93 0.78 0.73 0.78 0.81 0.99 1.27 1.53 1.70 1.91 2.00 1.97 1.84 1.87 1.97 1.90 1.93 1.85 1.70 1.62 1.66 1.59 1.42 1.33 1.17 1.10 1.09 1.10 1.06 1.10 1.11 1.04 0.96 0.91 1.01 1.00 0.98 0.88
0.37 0.55 0.78 0.75 0.87 1.39 1.28 0.77 0.77 0.90 0.85 0.84 1.01 1.15 1.32 1.53 1.62 1.66 1.72 1.84 1.97 1.94 1.92 1.83 1.74 1.71 1.67 1.60 1.52 1.42 1.23 1.09 1.05 1.04 0.99 0.99 1.01 1.02 0.96 0.94 0.96 0.96 0.99 0.96
0.32 0.60 0.95 1.03 1.27 1.46 1.29 0.86 0.73 1.00 1.21 0.89 0.86 0.97 1.09 1.11 1.36 1.65 1.58 1.56 1.72 1.78 1.78 1.72 1.67 1.69 1.61 1.52 1.46 1.38 1.25 1.09 0.95 0.93 0.93 0.88 0.85 0.84 0.83 0.82 0.87 0.97 0.99 0.95
0.32 0.57 0.99 1.18 1.54 1.77 1.43 0.75 0.59 0.97 1.63 1.08 0.97 1.00 1.17 1.26 1.57 1.60 1.33 1.30 1.43 1.54 1.55 1.50 1.44 1.45 1.46 1.38 1.32 1.32 1.26 1.13 0.94 0.80 0.74 0.72 0.74 0.75 0.78 0.80 0.85 0.85 0.90 0.90
0.69 0.81 1.02 1.27 1.70 1.67 0.94 0.57 0.69 1.51 1.71 1.09 1.06 1.12 1.19 1.31 1.40 1.23 1.11 1.26 1.40 1.45 1.45 1.35 1.27 1.24 1.24 1.17 1.09 1.09 1.08 0.99 0.77 0.64 0.60 0.63 0.63 0.64 0.65 0.75 0.79 0.79 0.77 0.81
1.06 1.26 1.37 1.51 1.84 1.82 0.85 0.70 1.12 1.35 0.96 0.94 1.01 0.99 1.01 0.94 0.89 0.97 1.08 1.25 1.36 1.41 1.37 1.25 1.17 1.07 1.01 0.95 0.98 0.98 0.87 0.73 0.62 0.57 0.55 0.56 0.55 0.47 0.49 0.67 0.71 0.70 0.77 0.75
1.15 1.41 1.52 1.66 1.80 1.38 0.83 0.84 0.86 0.85 0.87 0.85 0.89 0.85 0.84 0.85 0.85 0.92 1.06 1.17 1.29 1.27 1.19 1.06 0.95 0.85 0.79 0.84 0.90 0.87 0.73 0.59 0.54 0.58 0.61 0.55 0.48 0.47 0.47 0.54 0.59 0.61 0.69 0.66
1.22 1.15 1.23 1.37 1.39 1.12 0.91 0.77 0.73 0.72 0.75 0.73 0.78 0.81 0.84 0.88 0.91 0.96 1.02 1.03 1.10 1.10 1.00 0.89 0.84 0.80 0.79 0.76 0.68 0.64 0.50 0.45 0.50 0.60 0.62 0.57 0.53 0.50 0.43 0.41 0.40 0.41 0.45 0.48
1.12 1.27 1.45 1.48 1.37 1.18 1.01 0.80 0.74 0.76 0.78 0.78 0.84 0.82 0.79 0.84 0.91 0.96 0.96 0.90 0.90 0.88 0.83 0.75 0.79 0.77 0.72 0.63 0.57 0.50 0.43 0.43 0.53 0.57 0.53 0.50 0.46 0.44 0.41 0.34 0.29 0.29 0.31 0.33
0.84 1.18 1.58 1.62 1.30 1.20 1.12 0.98 0.87 0.92 1.02 0.98 0.88 0.82 0.77 0.74 0.72 0.69 0.69 0.67 0.69 0.71 0.66 0.63 0.65 0.64 0.57 0.51 0.51 0.44 0.38 0.37 0.48 0.52 0.50 0.43 0.40 0.37 0.33 0.32 0.31 0.26 0.24 0.23